Weather Roundup
Issued by NWS Chicago, IL

Home | Current Version | Previous Version | Graphics & Text | Print | Product List | Glossary On
Versions: 1 2 3 4 5 6 7 8 9 10 11 12 13 14 15 16 17 18 19 20 21 22 23 24 25 26 27 28 29 30 31 32 33 34 35 36 37 38 39 40 41 42 43 44 45 46 47 48 49 50
000
NZUS59 KLOT 280200
HRRLOT

CHICAGO AREA WEATHER ROUNDUP
NATIONAL WEATHER SERVICE CHICAGO/ROMEOVILLE IL
800 PM CST TUE JAN 27 2015

NOTE: "FAIR" INDICATES FEW OR NO CLOUDS BELOW 12,000 FEET WITH NO
SIGNIFICANT WEATHER AND/OR OBSTRUCTIONS TO VISIBILITY.

* THESE STATIONS ARE NOT UNDER NWS QUALITY CONTROL. THEY ALSO MAY NOT
  REPORT WEATHER SUCH AS PRECIPITATION OR FOG.

ILZ005-006-012>014-019>023-280300-
NORTHEAST ILLINOIS

CITY           SKY/WX    TMP DP  RH WIND       PRES   REMARKS
OHARE          PTCLDY    25  17  72 NE5       30.23F WCI  19
MIDWAY         PTCLDY    27  18  69 NE6       30.24F WCI  20
AURORA         CLEAR     24  16  71 E8        30.23F WCI  15
WAUKEGAN       CLEAR     15  13  91 CALM      30.23F
DUPAGE AIRPORT CLEAR     23  15  71 E5        30.23F WCI  17
WHEELING       CLEAR     23  16  74 CALM      30.26S
NORTHERLY IS     N/A     26  18  71 N7          N/A  WCI  19
$$

WIZ051-052-058>065-066-070>072-280300-
SOUTHEAST WISCONSIN

CITY           SKY/WX    TMP DP  RH WIND       PRES   REMARKS
MILWAUKEE      MOCLDY    27  17  66 N3        30.24F
KENOSHA*       CLEAR     20  15  81 CALM      30.23F
RACINE*        CLOUDY    27  18  69 NE7       30.25F WCI  19
WAUKESHA       CLOUDY    23  18  80 E3        30.24S
$$

INZ001>003-010>013-019-020-280300-
NORTHWEST INDIANA

CITY           SKY/WX    TMP DP  RH WIND       PRES   REMARKS
GARY*          PTCLDY    28  16  59 NE12      30.26S WCI  18
MICHIGAN CITY* NOT AVBL
RENSSELAER*    NOT AVBL
$$

LMZ740>746-280300-
SOUTHERN LAKE MICHIGAN

STATION/POSITION TIME  SKY/WX   TEMP WIND        PRES    VSBY
                                AIR  DIR/SP/G
                 (UTC)          (F)  (DEG/KT/KT) (MB)    (MI)
HARRISON CRIB    0100            27   10/ 11/ 12   N/A
BURNHAM HARBOR   0200            26   10/  6/ 10   N/A
CALUMET HARBOR   0100            27   10/  9/ 12   N/A
BURNS HARBOR     NOT AVBL
MICHIGAN CITY    0100            27  360/ 11/ 14   N/A
$$

ABBREVIATIONS USED IN REMARKS
   TC - TEMPERATURE IN CELSIUS
  WCI - WIND CHILL INDEX
   HX - HEAT INDEX
  VSB - VISIBILITY
$$


USA.gov is the U.S. government's official web portal to all federal, state and local government web resources and services.